Location: Asheville, NC
(35.6000°N, 82.5500°W)
Time: 17:05:57
(UTC-04:00)

Oscar 11 - Pass Details

Date: 17 March 2018
Orbit: 613 x 627 km, 97.6° (Epoch: 18 June)

Event Time Altitude Azimuth Distance (km) Brightness Sun altitude
Exits shadow 21:15:14 19° 171° (S) 1,469 8.8 -20.1°
Maximum altitude 21:18:17 82° 258° (WSW) 622 7.0 -20.7°
Drops below altitude 10° 21:22:35 10° 346° (NNW) 1,974 10.0 -21.6°
Sets 21:24:47 0° 348° (NNW) 2,885 10.9 -22.0°
